Overview Statistics Trail Chart Weather Telemetry Raw packets
 

This is the latest recevied weather packets stored in our database for station/object ZL1CTS-13. If no packets are shown the sender has not sent any weather packets the latest 10 day(s).

<< 113 114 115 116 117 118 119 >>
Time Temp. Humidity Pressure Rain* Wind** Luminosity Snow
1787972404 15.56° C 74% 1002 hPa 0 mm - - -
1787972104 16.11° C 74% 1001.9 hPa 0 mm - - -
1787971805 16.11° C 73% 1001.9 hPa 0 mm - - -
1787971511 16.11° C 72% 1001.8 hPa 0 mm - - -
1787971205 16.11° C 71% 1002 hPa 0 mm - - -
1787970904 16.11° C 71% 1001.9 hPa 0 mm - - -
1787970606 16.11° C 70% 1001.9 hPa 0 mm - - -
1787970304 16.67° C 71% 1001.9 hPa 0 mm - - -
1787970007 16.11° C 70% 1002.1 hPa 0 mm - - -
1787969704 16.11° C 71% 1002.3 hPa 0 mm - - -
1787969407 16.11° C 71% 1002.3 hPa 0 mm - - -
1787969104 16.11° C 71% 1002.4 hPa 0 mm - - -
1787968803 16.11° C 73% 1002.5 hPa 0 mm - - -
1787968504 16.11° C 76% 1002.3 hPa 0 mm - - -
1787968204 15.56° C 76% 1002.5 hPa 0 mm - - -
1787967904 15° C 77% 1002.6 hPa 0 mm - - -
1787967604 15° C 78% 1002.7 hPa 0 mm - - -
1787967304 15° C 77% 1002.8 hPa 0 mm - - -
1787967004 15° C 78% 1002.9 hPa 0 mm - - -
1787966704 15° C 78% 1002.9 hPa 0 mm - - -
1787966404 15° C 80% 1002.9 hPa 0 mm - - -
1787966104 15° C 79% 1003 hPa 0 mm - - -
1787965804 15° C 78% 1003.2 hPa 0 mm - - -
1787965504 15° C 79% 1003.2 hPa 0 mm - - -
1787965204 15° C 81% 1003.3 hPa 0 mm - - -

* Rain latest hour (hover to see other rain measurements)
** Current wind speed in m/s (hover to see current wind gust speed)